Tracking 23731 objects as of 26-Sep-2021
HD Live streaming from Space Station
objects crossing your sky now

YAOGAN-31 K

Track YAOGAN-31 K now!
10-day predictions


NORAD ID: 47854
Int'l Code: 2021-020A
Perigee: 1,081.7 km
Apogee: 1,112.5 km
Inclination: 63.4 °
Period: 107.0 minutes
Semi major axis: 7468 km
RCS: Unknown
Launch date: March 13, 2021
Source: People's Republic of China (PRC)
Launch site: Jiuquan Satellite Launch Center, China (JSC)
aabbcc
Your satellite tracking list
Your tracking list is empty




NASA's NSSDC Master Catalog

Two Line Element Set (TLE):
1 47854U 21020A   21268.99042028 -.00000066  00000-0  39974-4 0  9995
2 47854  63.4109   8.1812 0020609 338.0280  21.9854 13.45212860 26485
Source of the keplerian elements: AFSPC